User: anonymous   Login
Location: Vancouver
(49.2500°N, 123.1330°W)
Time: 08:04:16
(UTC-07:00)
Language:

Cosmos 1340 Rocket - Orbit

View from above orbital plane
View from above orbital plane
View from above satellite
View from above satellite

Ground track
Ground track

The orbit data is extracted from the following two-line orbital elements,

1 13068U 82013B   14303.43723756  .00004622  00000-0  32539-3 0  5434
2 13068 081.2053 238.0351 0021608 243.9760 115.9238 15.04687634778879
Epoch (UTC): 30 October 2014 10:29:37
Eccentricity: 0.0021608
inclination: 81.2053°
perigee height: 537 km
apogee height: 567 km
right ascension of ascending node: 238.0351°
argument of perigee: 243.9760°
revolutions per day: 15.04687634
mean anomaly at epoch: 115.9238°
orbit number at epoch: 77887

The dashed part of the orbit path shows where the satellite is in the earth's shadow,  

DLR